Flag for Austria Weather past 2 weeks in Hallein, Salzburg, Austria

Now
41 °F

Partly sunny.


Feels Like: 39 °F
Forecast: 22 / 42 °F
Wind: 3 mph from North

Location: Salzburg-Flughafen

Current Time: Feb 28, 2015 at 6:02:53 PM

Latest Report: Feb 28, 2015 at 5:20 PM


Visibility: N/A

Pressure: 30.07 "Hg

Humidity: 70%

Dew point: 32 °F

Location of HalleinLocation

Historic Weather in Hallein — Graph

°F

Hallein temperature yesterday

Maximum temperature yesterday: 50 °F (at 2:50 PM)
Minimum temperature yesterday: 30 °F (at 5:50 AM)
Average temperature yesterday: 39 °F

Past Weeks' High & Low Weather Summary

 TemperatureHumidityPressure
High54 °F (Feb 21, 2:20 PM)100% (Feb 13, 10:50 PM)30.72 "Hg (Feb 13, 10:50 PM)
Low19 °F (Feb 15, 2:50 AM)28% (Feb 21, 2:20 PM)29.47 "Hg (Feb 21, 2:50 PM)
Average34 °F81%30.02 "Hg
* Reported Feb 13 4:20 PM — Feb 28 4:50 PM, Hallein, Weather by CustomWeather, © 2015

Note: Actual official high and low records may vary slightly from our data, if they occured in-between our weather recording intervals... More about our weather records

Advertising

Hallein weather history for previous 24 hours

 ConditionsComfort  
Time TempWeatherWind HumidityBarometerVisibility
4:50 PM
Sat, Feb 28
41 °FPartly sunny.3 mph70%30.07 "HgN/A
4:20 PM41 °FPartly sunny.5 mph70%30.07 "HgN/A
3:50 PM41 °FScattered clouds.2 mph70%30.07 "HgN/A
3:20 PM41 °FPartly sunny.3 mph76%30.09 "HgN/A
2:50 PM41 °FPartly sunny.1 mph70%30.09 "HgN/A
2:20 PM41 °FPartly sunny.2 mph70%30.09 "HgN/A
1:50 PM39 °FBroken clouds.5 mph75%30.09 "HgN/A
1:20 PM39 °FBroken clouds.7 mph75%30.12 "HgN/A
12:50 PM39 °FBroken clouds.8 mph81%30.12 "HgN/A
12:20 PM39 °FBroken clouds.8 mph81%30.15 "HgN/A
11:50 AM39 °FBroken clouds.9 mph81%30.15 "HgN/A
11:20 AM37 °FLight rain. Broken clouds.8 mph87%30.15 "HgN/A
10:50 AM37 °FLight rain. Broken clouds.8 mph87%30.15 "HgN/A
10:20 AM37 °FLight rain. Broken clouds.2 mph87%30.15 "HgN/A
9:50 AM37 °FLight rain. Broken clouds.2 mph87%30.15 "HgN/A
9:20 AM36 °FBroken clouds.1 mph93%30.15 "HgN/A
8:50 AM36 °FLight rain. Partly sunny.2 mph93%30.15 "HgN/A
8:20 AM36 °FLight rain. Partly sunny.2 mph93%30.15 "HgN/A
7:50 AM36 °FLight rain. Partly sunny.3 mph93%30.12 "HgN/A
7:20 AM36 °FLight rain. Broken clouds.7 mph93%30.12 "Hg6 mi
6:50 AM36 °FLight rain. Passing clouds.3 mph93%30.12 "HgN/A
6:20 AM36 °FLight rain. Partly cloudy.6 mph87%30.09 "HgN/A
5:50 AM36 °FLight rain. Passing clouds.3 mph93%30.09 "HgN/A
5:20 AM36 °FLight rain. Partly cloudy.5 mph87%30.09 "HgN/A
4:50 AM37 °FPassing clouds.6 mph81%30.09 "HgN/A
4:20 AM37 °FPassing clouds.7 mph81%30.09 "HgN/A
3:50 AM36 °FPassing clouds.8 mph87%30.07 "HgN/A
3:20 AM36 °FPartly cloudy.7 mph93%30.07 "HgN/A
2:50 AM36 °FPartly cloudy.9 mph93%30.09 "HgN/A
2:20 AM37 °FPartly cloudy.10 mph87%30.09 "HgN/A
1:50 AM36 °FPartly cloudy.8 mph93%30.07 "HgN/A
1:20 AM37 °FPassing clouds.9 mph87%30.07 "HgN/A
12:50 AM37 °FSprinkles. Partly cloudy.14 mph87%30.07 "HgN/A
12:20 AM37 °FPartly cloudy.8 mph87%30.07 "HgN/A
11:50 PM
Fri, Feb 27
37 °FLight rain. Passing clouds.6 mph87%30.07 "HgN/A
11:20 PM37 °FLight rain. Passing clouds.2 mph93%30.04 "HgN/A
10:50 PM37 °FLight rain. Passing clouds.2 mph87%30.04 "HgN/A
10:20 PM39 °FLight rain. Passing clouds.2 mph87%30.04 "HgN/A
9:50 PM39 °FLight rain. Passing clouds.1 mph81%30.04 "HgN/A
9:20 PM39 °FLight rain. Passing clouds.3 mph75%30.01 "HgN/A
8:50 PM39 °FLight rain. Passing clouds.2 mph75%30.01 "HgN/A
8:20 PM39 °FLight rain. Passing clouds.6 mph70%29.98 "HgN/A
7:50 PM41 °FLight rain. Passing clouds.9 mph66%29.98 "HgN/A
7:20 PM41 °FPassing clouds.9 mph61%29.95 "HgN/A
6:50 PM43 °FPassing clouds.10 mph53%29.95 "HgN/A
6:20 PM45 °FPartly cloudy.12 mph53%29.92 "HgN/A
Weather by CustomWeather, © 2015

See weather overviewHow to use our weather pages